User: anonymous   Login
Location: Unspecified
(0.0000°N, 0.0000°E)
Time: 07:35:38
(UTC+00:00)
Language:

UWE-1 - Orbit

View from above orbital plane
View from above orbital plane
View from above satellite
View from above satellite

Ground track
Ground track

The orbit data is extracted from the following two-line orbital elements,

1 28892U 05043C   17289.99247648  .00000223  00000-0  51816-4 0  9999
2 28892  97.8851  85.3881 0017574 116.4545 243.8464 14.63398748638407
Epoch (UTC): 16 October 2017 23:49:09
Eccentricity: 0.0017574
inclination: 97.8851°
perigee height: 670 km
apogee height: 694 km
right ascension of ascending node: 85.3881°
argument of perigee: 116.4545°
revolutions per day: 14.63398748
mean anomaly at epoch: 243.8464°
orbit number at epoch: 63840

The dashed part of the orbit path shows where the satellite is in the earth's shadow,  

DLR